Regional Weather Roundup
Issued by NWS Grand Forks, ND

Home | Current Version | Previous Version | Text Only | Print | Product List | Glossary Off
Versions: 1 2 3 4 5 6 7 8 9 10 11 12 13 14 15 16 17 18 19 20 21 22 23 24 25 26 27 28 29 30 31 32 33 34 35 36 37 38 39 40 41 42 43 44 45 46 47 48 49 50

000
ASUS43 KFGF 252131
RWRFGF
PRAIRIE TO PINES  WEATHER ROUNDUP
NATIONAL WEATHER SERVICE EASTERN NORTH DAKOTA/GRAND FORKS ND
400 PM CDT MON SEP 25 2017

 **SATELLITE DATA USED TO AUGMENT SKY COVER AT AUTOMATED STATIONS**
 *****  WEATHER ACROSS EASTERN NORTH DAKOTA  *****

CITY           SKY/WX    TMP DP  RH WIND       PRES   REMARKS
GRAND FORKS    CLOUDY    53  47  79 N12       30.12R
GRAND FRKS AFB CLOUDY    52  45  76 N12       30.13R
DEVILS LAKE    CLOUDY    51  41  68 NE10      30.14F
FARGO          CLOUDY    53  47  79 N12       30.10R
WAHPETON ARPT  CLOUDY    52  46  82 N12G17    30.08S
$$

 ***** WEATHER ACROSS CENTRAL AND WESTERN NORTH DAKOTA  *****

CITY           SKY/WX    TMP DP  RH WIND       PRES   REMARKS
BISMARCK       CLOUDY    53  43  68 NE5       30.12F
MINOT          CLOUDY    55  42  61 E6        30.12F
JAMESTOWN      CLOUDY    50  43  77 N7        30.11F
MINOT AFB      CLOUDY    54  41  61 E6        30.11F
GARRISON         N/A     50  44  80 S3        30.13S
WILLISTON      CLOUDY    52  43  71 CALM      30.12S
DICKINSON      CLOUDY    46  42  86 S6        30.10F
HETTINGER      CLOUDY    50  39  66 NE5       30.12F
$$

 *****  OTHER AIRPORT OBSERVATIONS IN OUR AREA  *****

CITY           SKY/WX    TMP DP  RH WIND       PRES   REMARKS
WALHALLA       FAIR     N/A N/A N/A N8        30.15S
GRAFTON AIRPOR CLOUDY    52  46  82 N12       30.15S
VALLEY CITY AR CLOUDY    50  46  87 N12       30.11F
CANDO          CLOUDY    54  41  62 NE9       30.15F
CAVALIER APRT  MOCLDY    54  45  71 N12       30.14S
GWINNER        CLOUDY    52  46  82 N10       30.08F
SHEYENNE NWR     N/A     51  47  86 N7        29.95S
ROLLA          CLOUDY    52  37  58 N12       30.14F
 ***** THE ABOVE OBSERVATIONS ARE NON NWS ARE NOT QUALITY
       CONTROLLED AND MAY MIS-REPORT RAIN FOR SNOW...
$$

  *****  WEATHER ACROSS NORTHERN MINNESOTA  *****

CITY           SKY/WX    TMP DP  RH WIND       PRES   REMARKS
FLAG ISLAND    PTSUNNY   54  46  76 N9        30.09S
WARROAD        NOT AVBL
ROSEAU           N/A     55  48  76 N7        30.11S
HALLOCK          N/A     54  48  82 N8        30.13S
THF RVR FALLS  CLOUDY    54  46  74 NE7       30.11S
BAUDETTE       CLOUDY    55  49  80 N12       30.08F
WASKISH        CLOUDY    55  48  76 N6        30.07S
CROOKSTON      CLOUDY    54  48  82 N10       30.11S
STEPHEN NDAWN    N/A     54  46  76 VRB12       N/A
GREENBUSH NDAW   N/A     55  46  71 N7          N/A
$$
  *****  WEATHER ACROSS CENTRAL AND WEST MINNESOTA  *****

CITY           SKY/WX    TMP DP  RH WIND       PRES   REMARKS
FOSSTON        CLOUDY    52  46  82 N9        30.09S
BEMIDJI        CLOUDY    55  48  79 N8        30.06S
PARK RAPIDS    CLOUDY    57  48  72 N12       30.04F
ELBOW LAKE     CLOUDY    55  49  83 NW10      30.05R
WADENA         CLOUDY    55  48  76 N8        30.04R
DETROIT LAKES  CLOUDY    54  48  82 NW12      30.07S
MOORHEAD       CLOUDY    52  46  82 N10       30.10S
FERGUS FALLS   CLOUDY    55  48  76 N9        30.06S
MORRIS MN      NOT AVBL
STAPLES        CLOUDY    55  48  76 N7        30.02F
$$
  *****  WEATHER ELSEWHERE ACROSS MINNESOTA  *****

CITY           SKY/WX    TMP DP  RH WIND       PRES   REMARKS
DULUTH         CLOUDY    56  55  97 N8        29.99F
INTRNTL FALLS  CLOUDY    56  48  74 N6        30.07S
ELY            CLOUDY    55  54  94 CALM      30.03S
CLOQUET        CLOUDY    55  52  88 N9        30.00F
WHEATON        CLOUDY    54  48  82 NW10G16   30.07F
BRAINERD       CLOUDY    57  51  80 NE5       30.03F
HIBBING        CLOUDY    56  52  86 N7        30.02F
ALEXANDRIA     CLOUDY    58  49  72 N7        30.03F
SAINT CLOUD    CLOUDY    57  54  89 N8        29.98F
MINNEAPOLIS    CLOUDY    61  58  90 N12       29.96F
$$

  *****  WEATHER ACROSS SOUTH DAKOTA  *****

CITY           SKY/WX    TMP DP  RH WIND       PRES   REMARKS
SIOUX FALLS    LGT RAIN  56  54  93 N8        29.99F
BROOKINGS      LGT RAIN  53  49  86 N13       30.01F
WATERTOWN      CLOUDY    51  48  89 N14       30.03F
HURON          CLOUDY    53  48  83 N14       30.05F
SISSETON         N/A     53  48  83 N13       30.06F
ABERDEEN       CLOUDY    53  47  79 N10       30.10F
MITCHELL       CLOUDY    53  50  89 N12       30.04S
PIERRE         CLOUDY    53  44  71 N10       30.08S
MOBRIDGE       CLOUDY    53  45  74 N9        30.09R
RAPID CITY     CLOUDY    52  43  71 E8        30.09F
$$

  *****  SOME WEATHER IN NEARBY STATES *****

CITY           SKY/WX    TMP DP  RH WIND       PRES   REMARKS
GLASGOW MT     PTSUNNY   59  35  40 E10       30.06S
GREAT FALLS MT FAIR      60  32  34 NW5       30.01S
CHEYENNE WY    FAIR      54  34  46 SE9       30.07F
SCOTTSBLUFF NE CLOUDY    56  40  55 CALM      30.08F
OMAHA NE       LGT RAIN  65  62  90 NW8       29.92R
DES MOINES IA  CLOUDY    75  64  69 NW16      29.85R THUNDER
DAVENPORT IA   FAIR      89  63  41 S10       29.90F HX  90
CHICAGO IL     FAIR      91  55  29 SE12      29.91F
EAU CLAIRE WI  PTSUNNY   69  66  90 CALM      29.91R
LA CROSSE WI   PTSUNNY   70  66  87 SE8       29.91S
$$

  *****  SOME NATIONAL WEATHER *****

CITY           SKY/WX    TMP DP  RH WIND       PRES   REMARKS
LA GUARDIA NY  FAIR      84  67  56 NE9       30.01S
RALEIGH NC     PTSUNNY   82  66  58 NE9       29.94F
ATLANTA GA     FAIR      85  57  38 NE9       29.95F
NEW ORLEANS LA PTSUNNY   84  69  60 NE12      29.84F
OKLAHOMA CITY  CLOUDY    83  63  50 S15G21    29.83F
ALBUQUERQUE NM FAIR      72  20  14 N6        29.94F
SALT LAKE CITY FAIR      60  36  40 W7        30.10F
LOS ANGELES CA FAIR      80  48  32 W12       29.81F
BOISE ID       FAIR      64  32  30 NW3       30.09F
SEATTLE WA     CLOUDY    63  53  70 SW6       30.13R
$$

*** WEATHER ACROSS MANITOBA...SASKATCHEWAN AND ONTARIO ***
                ***ONTARIO***

CITY           SKY/WX    TMP DP  RH WIND       PRES   REMARKS
GERALDTON      CLOUDY    55  48  76 N9        30.03R
THUNDER BAY    CLOUDY    64  55  72 N5        29.99R
SIOUX LOOKOUT  CLOUDY    54  46  76 VRB5      30.09R
TORONTO        PTSUNNY   86  64  48 SE9       30.01F
BIG TROUT LK   LGT RAIN  45  45 100 N3        30.16R
PICKLE LAKE    CLOUDY    50  45  81 N3        30.10R
DRYDEN         CLOUDY    54  46  76 NE9       30.09R
KENORA         CLOUDY    52  48  87 N5        30.11
$$
                *** MANITOBA***

CITY           SKY/WX    TMP DP  RH WIND       PRES   REMARKS
BRANDON        CLOUDY    55  39  54 E6        30.15S
DAUPHIN        SUNNY     55  43  62 E5        30.15F
ISLAND LAKE    CLOUDY    46  39  76 W6        30.20S
PILOT MOUND      N/A     52  41  66 NE8         N/A
THE PAS        PTSUNNY   55  43  62 SE14      30.10F
THOMPSON       MOSUNNY   52  32  46 S3        30.16S
WINNIPEG       CLOUDY    54  45  71 NE9       30.15S
LYNN LAKE      CLOUDY    50  39  66 S10G18    30.08F
CHURCHILL      PTSUNNY   46  30  53 W6        30.18S
GILLAM         MOSUNNY   45  28  53 NW5       30.20S
$$
                ***SASKATCHEWAN***

CITY           SKY/WX    TMP DP  RH WIND       PRES   REMARKS
ESTEVAN        CLOUDY    54  36  50 S6        30.13S
KINDERSLEY     PTSUNNY   63  28  27 VRB2      29.96S
LLOYDMINSTER   PTSUNNY   63  41  45 SW12G18   29.91F
PRINCE ALBERT  PTSUNNY   64  37  36 SW15      30.01F
REGINA         PTSUNNY   57  28  33 S7        30.09S
YORKTON        CLOUDY    57  34  41 SE7       30.12S
N. BATTLEFORD  CLOUDY    64  34  32 S9        29.97F
LA RONGE       PTSUNNY   61  39  44 S8        29.95F
SASKATOON      PTSUNNY   66  37  34 S13G18    30.00F
SWIFT CURRENT  MOSUNNY   63  32  31 S8G20     29.99F
$$
NOTE: THESE ARE AUTOMATED STATIONS WITH LIMITED QUALITY CONTROL
      "FAIR" INDICATES FEW OR NO CLOUDS BELOW 12,000 FEET WITH NO
      SIGNIFICANT WEATHER AND/OR OBSTRUCTIONS TO VISIBILITY.
      SKY/WX - SKY CONDITION AND SIGNIFICANT WEATHER.
      TMP - AIR TEMPERATURE.    DP   - DEWPOINT TEMPERATURE.
      RH  - RELATIVE HUMIDITY.  PRES - PRESSURE.
      HX  - HEAT INDEX.         WCI  - WIND CHILL INDEX.
$



USA.gov is the U.S. government's official web portal to all federal, state and local government web resources and services.